Time,TemperatureF,DewpointF,PressureIn,WindDirection,WindDirectionDegrees,WindSpeedMPH,WindSpeedGustMPH,Humidity,HourlyPrecipIn,Conditions,Clouds,dailyrainin,SoftwareType,DateUTC
2013-03-17 00:02:00,15.4,10.0,29.96,WNW,287,0.0,3.0,78,0.00,,,0.02,weatherlink.com 1.10,2013-03-17 04:02:00,
2013-03-17 00:17:00,15.3,10.0,29.97,WNW,287,0.0,3.0,78,0.00,,,0.00,weatherlink.com 1.10,2013-03-17 04:17:00,
2013-03-17 00:32:00,14.7,9.0,29.97,WNW,287,0.0,0.0,78,0.00,,,0.00,weatherlink.com 1.10,2013-03-17 04:32:00,
2013-03-17 00:47:00,13.4,8.0,29.97,WNW,287,0.0,0.0,79,0.00,,,0.00,weatherlink.com 1.10,2013-03-17 04:47:00,
2013-03-17 01:02:00,11.7,7.0,29.97,WNW,287,0.0,0.0,82,0.00,,,0.00,weatherlink.com 1.10,2013-03-17 05:02:00,
2013-03-17 01:17:00,10.3,6.0,29.97,WNW,287,0.0,0.0,83,0.00,,,0.00,weatherlink.com 1.10,2013-03-17 05:17:00,
2013-03-17 01:32:00,10.1,7.0,29.98,WNW,287,0.0,0.0,86,0.00,,,0.00,weatherlink.com 1.10,2013-03-17 05:32:00,
2013-03-17 01:47:00,10.4,7.0,29.99,WNW,287,0.0,0.0,86,0.00,,,0.00,weatherlink.com 1.10,2013-03-17 05:47:00,
2013-03-17 02:02:00,10.1,7.0,30.00,WNW,287,0.0,0.0,87,0.00,,,0.00,weatherlink.com 1.10,2013-03-17 06:02:00,
2013-03-17 02:17:00,9.9,7.0,30.00,WNW,287,0.0,0.0,87,0.00,,,0.00,weatherlink.com 1.10,2013-03-17 06:17:00,
2013-03-17 02:33:00,9.0,6.0,30.00,WNW,287,0.0,0.0,86,0.00,,,0.00,weatherlink.com 1.10,2013-03-17 06:33:00,
2013-03-17 02:48:00,8.0,5.0,30.01,WNW,287,0.0,0.0,86,0.00,,,0.00,weatherlink.com 1.10,2013-03-17 06:48:00,
2013-03-17 03:03:00,8.2,6.0,30.01,WNW,287,0.0,0.0,89,0.00,,,0.00,weatherlink.com 1.10,2013-03-17 07:03:00,
2013-03-17 03:18:00,10.5,8.0,30.02,WNW,287,0.0,0.0,91,0.00,,,0.00,weatherlink.com 1.10,2013-03-17 07:18:00,
2013-03-17 03:33:00,11.6,9.0,30.02,WNW,287,0.0,0.0,90,0.00,,,0.00,weatherlink.com 1.10,2013-03-17 07:33:00,
2013-03-17 03:48:00,12.2,10.0,30.01,WNW,287,0.0,0.0,89,0.00,,,0.00,weatherlink.com 1.10,2013-03-17 07:48:00,
2013-03-17 04:03:00,10.9,7.0,30.00,WNW,287,0.0,0.0,85,0.00,,,0.00,weatherlink.com 1.10,2013-03-17 08:03:00,
2013-03-17 04:18:00,9.3,6.0,30.00,WNW,287,0.0,0.0,85,0.00,,,0.00,weatherlink.com 1.10,2013-03-17 08:18:00,
2013-03-17 04:32:00,9.3,7.0,30.00,WNW,287,0.0,0.0,88,0.00,,,0.00,weatherlink.com 1.10,2013-03-17 08:32:00,
2013-03-17 04:47:00,12.5,9.0,30.01,NNW,337,0.0,0.0,86,0.00,,,0.00,weatherlink.com 1.10,2013-03-17 08:47:00,
2013-03-17 05:02:00,12.6,9.0,30.02,NNW,337,0.0,0.0,86,0.00,,,0.00,weatherlink.com 1.10,2013-03-17 09:02:00,
2013-03-17 05:17:00,12.9,10.0,30.02,NNW,337,0.0,0.0,87,0.00,,,0.00,weatherlink.com 1.10,2013-03-17 09:17:00,
2013-03-17 05:32:00,13.1,10.0,30.02,NNW,337,0.0,0.0,87,0.00,,,0.00,weatherlink.com 1.10,2013-03-17 09:32:00,
2013-03-17 05:47:00,13.2,10.0,30.03,NNW,337,0.0,0.0,87,0.00,,,0.00,weatherlink.com 1.10,2013-03-17 09:47:00,
2013-03-17 06:02:00,13.4,11.0,30.04,NNW,337,0.0,0.0,88,0.00,,,0.00,weatherlink.com 1.10,2013-03-17 10:02:00,
2013-03-17 06:17:00,14.1,12.0,30.05,NNW,337,0.0,0.0,89,0.00,,,0.00,weatherlink.com 1.10,2013-03-17 10:17:00,
2013-03-17 06:32:00,15.0,12.0,30.06,NNW,337,0.0,1.0,89,0.00,,,0.00,weatherlink.com 1.10,2013-03-17 10:32:00,
2013-03-17 06:48:00,15.4,13.0,30.07,NNW,330,0.0,2.0,89,0.00,,,0.00,weatherlink.com 1.10,2013-03-17 10:48:00,
2013-03-17 07:03:00,15.3,13.0,30.09,NW,324,0.0,2.0,89,0.00,,,0.00,weatherlink.com 1.10,2013-03-17 11:03:00,
2013-03-17 07:18:00,14.8,12.0,30.08,NW,309,0.0,4.0,89,0.00,,,0.00,weatherlink.com 1.10,2013-03-17 11:18:00,
2013-03-17 07:33:00,14.4,12.0,30.09,NW,308,0.0,2.0,89,0.00,,,0.00,weatherlink.com 1.10,2013-03-17 11:33:00,
2013-03-17 07:48:00,14.3,12.0,30.09,NW,307,0.0,2.0,89,0.00,,,0.00,weatherlink.com 1.10,2013-03-17 11:48:00,
2013-03-17 08:03:00,14.6,12.0,30.10,NW,309,0.0,2.0,90,0.00,,,0.00,weatherlink.com 1.10,2013-03-17 12:03:00,
2013-03-17 08:18:00,15.0,13.0,30.11,NW,309,1.0,2.0,90,0.00,,,0.00,weatherlink.com 1.10,2013-03-17 12:18:00,
2013-03-17 08:33:00,15.4,13.0,30.11,WNW,299,0.0,3.0,89,0.00,,,0.00,weatherlink.com 1.10,2013-03-17 12:33:00,
2013-03-17 08:48:00,16.0,13.0,30.12,NW,306,0.0,2.0,89,0.00,,,0.00,weatherlink.com 1.10,2013-03-17 12:48:00,
2013-03-17 09:03:00,17.2,14.0,30.12,WNW,303,0.0,4.0,87,0.00,,,0.00,weatherlink.com 1.10,2013-03-17 13:03:00,
2013-03-17 09:18:00,18.6,14.0,30.13,North,360,1.0,4.0,81,0.00,,,0.00,weatherlink.com 1.10,2013-03-17 13:18:00,
2013-03-17 09:33:00,19.9,14.0,30.14,NE,53,1.0,5.0,76,0.00,,,0.00,weatherlink.com 1.10,2013-03-17 13:33:00,
2013-03-17 09:48:00,20.7,12.0,30.14,NNW,345,2.0,6.0,70,0.00,,,0.00,weatherlink.com 1.10,2013-03-17 13:48:00,
2013-03-17 10:03:00,21.2,12.0,30.16,NW,307,0.0,10.0,67,0.00,,,0.00,weatherlink.com 1.10,2013-03-17 14:03:00,
2013-03-17 10:18:00,22.0,11.0,30.16,NNE,32,6.0,6.0,64,0.00,,,0.00,weatherlink.com 1.10,2013-03-17 14:18:00,
2013-03-17 10:34:00,22.6,11.0,30.17,NNW,344,5.0,8.0,60,0.00,,,0.00,weatherlink.com 1.10,2013-03-17 14:34:00,
2013-03-17 10:49:00,23.4,10.0,30.17,NNW,340,1.0,11.0,57,0.00,,,0.00,weatherlink.com 1.10,2013-03-17 14:49:00,
2013-03-17 11:04:00,23.9,11.0,30.17,North,355,3.0,6.0,57,0.00,,,0.00,weatherlink.com 1.10,2013-03-17 15:04:00,
2013-03-17 11:19:00,24.6,11.0,30.17,NNW,331,5.0,6.0,57,0.00,,,0.00,weatherlink.com 1.10,2013-03-17 15:19:00,
2013-03-17 11:34:00,25.4,11.0,30.17,NW,319,4.0,7.0,55,0.00,,,0.00,weatherlink.com 1.10,2013-03-17 15:34:00,
2013-03-17 11:49:00,26.2,11.0,30.17,NW,317,2.0,6.0,52,0.00,,,0.00,weatherlink.com 1.10,2013-03-17 15:49:00,
2013-03-17 12:04:00,26.9,11.0,30.17,NNW,348,4.0,9.0,51,0.00,,,0.00,weatherlink.com 1.10,2013-03-17 16:04:00,
2013-03-17 12:19:00,27.3,11.0,30.18,NNW,340,6.0,10.0,51,0.00,,,0.00,weatherlink.com 1.10,2013-03-17 16:19:00,
2013-03-17 12:34:00,27.8,11.0,30.18,NW,307,5.0,12.0,49,0.00,,,0.00,weatherlink.com 1.10,2013-03-17 16:34:00,
2013-03-17 12:48:00,28.2,11.0,30.19,NNW,329,5.0,13.0,48,0.00,,,0.00,weatherlink.com 1.10,2013-03-17 16:48:00,
2013-03-17 13:03:00,27.9,11.0,30.19,North,360,6.0,11.0,49,0.00,,,0.00,weatherlink.com 1.10,2013-03-17 17:03:00,
2013-03-17 13:18:00,29.3,13.0,30.20,NNW,328,4.0,9.0,51,0.00,,,0.00,weatherlink.com 1.10,2013-03-17 17:18:00,
2013-03-17 13:33:00,29.6,14.0,30.20,NNW,328,7.0,12.0,52,0.00,,,0.00,weatherlink.com 1.10,2013-03-17 17:33:00,
2013-03-17 13:48:00,28.8,13.0,30.19,WNW,297,5.0,14.0,51,0.00,,,0.00,weatherlink.com 1.10,2013-03-17 17:48:00,
2013-03-17 14:03:00,29.3,13.0,30.20,NNW,345,13.0,13.0,51,0.00,,,0.00,weatherlink.com 1.10,2013-03-17 18:03:00,
2013-03-17 14:18:00,29.4,12.0,30.20,NNW,329,5.0,12.0,49,0.00,,,0.00,weatherlink.com 1.10,2013-03-17 18:18:00,
2013-03-17 14:33:00,29.8,14.0,30.19,NW,304,6.0,11.0,52,0.00,,,0.00,weatherlink.com 1.10,2013-03-17 18:33:00,
2013-03-17 14:48:00,29.9,14.0,30.19,NW,304,2.0,10.0,52,0.00,,,0.00,weatherlink.com 1.10,2013-03-17 18:48:00,
2013-03-17 15:03:00,29.8,13.0,30.20,WNW,296,3.0,12.0,50,0.00,,,0.00,weatherlink.com 1.10,2013-03-17 19:03:00,
2013-03-17 15:18:00,29.9,13.0,30.20,NW,323,9.0,11.0,50,0.00,,,0.00,weatherlink.com 1.10,2013-03-17 19:18:00,
2013-03-17 15:34:00,30.2,13.0,30.20,NNW,346,4.0,13.0,49,0.00,,,0.00,weatherlink.com 1.10,2013-03-17 19:34:00,
2013-03-17 15:48:00,30.3,12.0,30.20,NW,317,2.0,11.0,47,0.00,,,0.00,weatherlink.com 1.10,2013-03-17 19:48:00,
2013-03-17 16:03:00,30.1,12.0,30.21,WNW,299,3.0,11.0,47,0.00,,,0.00,weatherlink.com 1.10,2013-03-17 20:03:00,
2013-03-17 16:18:00,29.3,11.0,30.21,North,355,6.0,13.0,47,0.00,,,0.00,weatherlink.com 1.10,2013-03-17 20:18:00,
2013-03-17 16:34:00,28.5,10.0,30.22,NNW,333,5.0,13.0,47,0.00,,,0.00,weatherlink.com 1.10,2013-03-17 20:34:00,
2013-03-17 16:49:00,28.4,11.0,30.22,WNW,294,9.0,19.0,48,0.00,,,0.00,weatherlink.com 1.10,2013-03-17 20:49:00,
2013-03-17 17:04:00,27.8,10.0,30.22,WNW,295,4.0,10.0,48,0.00,,,0.00,weatherlink.com 1.10,2013-03-17 21:04:00,
2013-03-17 17:19:00,27.5,10.0,30.22,NW,325,3.0,10.0,48,0.00,,,0.00,weatherlink.com 1.10,2013-03-17 21:19:00,
2013-03-17 17:34:00,26.7,9.0,30.23,NNW,331,3.0,10.0,48,0.00,,,0.00,weatherlink.com 1.10,2013-03-17 21:34:00,
2013-03-17 17:49:00,26.1,9.0,30.24,NW,304,2.0,10.0,48,0.00,,,0.00,weatherlink.com 1.10,2013-03-17 21:49:00,
2013-03-17 18:04:00,25.6,9.0,30.24,WNW,294,3.0,9.0,49,0.00,,,0.00,weatherlink.com 1.10,2013-03-17 22:04:00,
2013-03-17 18:19:00,25.3,9.0,30.25,NW,323,1.0,10.0,50,0.00,,,0.00,weatherlink.com 1.10,2013-03-17 22:19:00,
2013-03-17 18:34:00,24.9,9.0,30.25,NNW,328,2.0,7.0,51,0.00,,,0.00,weatherlink.com 1.10,2013-03-17 22:34:00,
2013-03-17 18:49:00,24.4,8.0,30.26,NNW,338,2.0,7.0,50,0.00,,,0.00,weatherlink.com 1.10,2013-03-17 22:49:00,
2013-03-17 19:04:00,23.9,8.0,30.27,NNW,327,2.0,4.0,52,0.00,,,0.00,weatherlink.com 1.10,2013-03-17 23:04:00,
2013-03-17 19:19:00,23.2,8.0,30.28,NNW,327,1.0,4.0,52,0.00,,,0.00,weatherlink.com 1.10,2013-03-17 23:19:00,
2013-03-17 19:34:00,22.6,8.0,30.28,NW,323,0.0,4.0,54,0.00,,,0.00,weatherlink.com 1.10,2013-03-17 23:34:00,
2013-03-17 19:49:00,22.1,8.0,30.29,NW,322,0.0,4.0,54,0.00,,,0.00,weatherlink.com 1.10,2013-03-17 23:49:00,
2013-03-17 20:04:00,21.5,7.0,30.30,NW,314,0.0,3.0,54,0.00,,,0.00,weatherlink.com 1.10,2013-03-18 00:04:00,
2013-03-17 20:19:00,21.1,7.0,30.30,WNW,297,0.0,3.0,55,0.00,,,0.00,weatherlink.com 1.10,2013-03-18 00:19:00,
2013-03-17 20:34:00,20.9,7.0,30.31,WNW,301,0.0,2.0,55,0.00,,,0.00,weatherlink.com 1.10,2013-03-18 00:34:00,
2013-03-17 20:49:00,20.6,7.0,30.32,WNW,300,0.0,1.0,55,0.00,,,0.00,weatherlink.com 1.10,2013-03-18 00:49:00,
2013-03-17 21:04:00,20.0,6.0,30.33,WNW,301,0.0,0.0,56,0.00,,,0.00,weatherlink.com 1.10,2013-03-18 01:04:00,
2013-03-17 21:19:00,19.4,7.0,30.33,WNW,300,0.0,0.0,58,0.00,,,0.00,weatherlink.com 1.10,2013-03-18 01:19:00,
2013-03-17 21:34:00,18.6,7.0,30.34,WNW,301,0.0,1.0,60,0.00,,,0.00,weatherlink.com 1.10,2013-03-18 01:34:00,
2013-03-17 21:49:00,17.9,6.0,30.34,WNW,301,0.0,1.0,60,0.00,,,0.00,weatherlink.com 1.10,2013-03-18 01:49:00,
2013-03-17 22:04:00,17.5,6.0,30.34,WNW,301,0.0,1.0,61,0.00,,,0.00,weatherlink.com 1.10,2013-03-18 02:04:00,
2013-03-17 22:19:00,17.2,5.0,30.34,WNW,300,0.0,0.0,60,0.00,,,0.00,weatherlink.com 1.10,2013-03-18 02:19:00,
2013-03-17 22:34:00,17.1,5.0,30.34,WNW,301,0.0,1.0,59,0.00,,,0.00,weatherlink.com 1.10,2013-03-18 02:34:00,
2013-03-17 22:49:00,17.2,4.0,30.34,WNW,300,0.0,0.0,57,0.00,,,0.00,weatherlink.com 1.10,2013-03-18 02:49:00,
2013-03-17 23:04:00,17.2,5.0,30.35,WNW,300,0.0,1.0,58,0.00,,,0.00,weatherlink.com 1.10,2013-03-18 03:04:00,
2013-03-17 23:19:00,16.8,4.0,30.36,WNW,300,0.0,0.0,58,0.00,,,0.00,weatherlink.com 1.10,2013-03-18 03:19:00,
2013-03-17 23:34:00,16.5,4.0,30.36,WNW,301,0.0,0.0,57,0.00,,,0.00,weatherlink.com 1.10,2013-03-18 03:34:00,
2013-03-17 23:49:00,16.2,4.0,30.36,WNW,300,0.0,1.0,58,0.00,,,0.00,weatherlink.com 1.10,2013-03-18 03:49:00,